#timestamp,LO_Frequency,Hit,StdDev 
1456722015.4,286046995.5,N
1456722035.3,286046997.9,N
1456722055.1,286046998.7,N
1456722056.0,286046998.7,N
1456722075.8,286046998.3,N
1456722095.6,286046998.9,N
1456722115.5,286046999.8,N
1456722135.3,286047001.1,N
1456722155.1,286047000.1,N
1456722175.9,286047004.2,N
1456722195.7,286046999.4,N
1456722215.5,286047000.0,N
1456722235.4,286046998.2,N
1456722255.2,286046998.2,N
1456722275.0,286047000.2,N
1456722275.9,286047000.2,N
1456722295.8,286047000.8,N
1456722315.6,286047002.8,N
1456722335.4,286047000.0,N
1456722355.2,286047003.1,N
1456722375.1,286047004.2,N
1456722376.0,286047004.2,N
1456722395.8,286047002.0,N
1456722415.6,286047003.1,N
1456722435.5,286047003.2,N
1456722455.3,286047003.9,N
1456722475.1,286047003.9,N
1456722495.9,286047001.8,N
1456722515.7,286047000.5,N
1456722535.5,286047000.5,N
1456722555.4,286047000.5,N
1456722575.2,286046998.8,N
1456722595.0,286046999.3,N
1456722595.9,286046999.3,N
1456722615.8,286046995.3,N
1456722635.6,286046995.5,N
1456722655.4,286046997.5,N
1456722675.3,286046996.9,N
1456722695.1,286046996.7,N
1456722696.0,286046996.7,N
1456722715.8,286046995.0,N
1456722735.7,286046996.9,N
1456722755.5,286046999.2,N
1456722775.3,286046998.5,N
1456722795.1,286046997.7,N
1456722815.9,286047002.7,N
1456722835.7,286047004.4,N
1456722855.5,286047002.9,N
1456722875.4,286047001.7,N
1456722895.2,286047000.1,N
1456722915.0,286047002.8,N
1456722915.9,286047002.8,N
1456722935.8,286047000.9,N
1456722955.6,286047000.4,N
1456722975.4,286047001.5,N
1456722995.3,286047004.4,N
1456723015.1,286047004.4,N
1456723016.0,286047004.4,N
1456723035.8,286046998.3,N
1456723055.7,286047002.2,N
1456723075.5,286047000.3,N
1456723095.3,286046999.5,N
1456723115.2,286046998.7,N
1456723135.9,286047001.0,N
1456723155.7,286047001.0,N
1456723175.6,286046997.0,N
1456723195.4,286047000.5,N
1456723215.2,286047002.8,N
1456723235.0,286047004.3,N
1456723236.0,286047004.3,N
1456723255.8,286047005.7,N
1456723275.6,286047010.1,Y
1456723295.5,286047008.3,P
1456723315.3,286047007.4,N
1456723335.1,286047008.9,N
1456723355.8,286047007.7,N
1456723375.7,286047011.6,Y
1456723395.5,286047002.0,P
1456723415.3,286047002.5,N
1456723435.2,286046999.2,N
1456723455.0,286047000.6,N
1456723455.9,286047000.6,N
1456723475.7,286047000.0,N
1456723495.6,286047000.4,N
1456723515.4,286047004.4,N
1456723535.2,286047003.7,N
1456723555.1,286047005.8,N
1456723556.0,286047005.8,N
1456723575.8,286047003.8,N
1456723595.6,286047002.8,N
1456723615.5,286047003.7,N
1456723635.3,286047003.8,N
1456723655.1,286047002.2,N
1456723675.9,286046998.1,N
1456723695.7,286047001.1,N
1456723715.5,286046997.0,N
1456723735.3,286046998.4,N
1456723755.2,286046999.1,N
1456723775.0,286046999.2,N
1456723775.9,286046999.2,N
1456723795.7,286046998.2,N
1456723815.6,286047001.0,N
1456723835.4,286046998.1,N
1456723855.2,286046999.8,N
1456723875.1,286047002.8,N
1456723876.0,286047002.8,N
1456723895.8,286047000.0,N
1456723915.6,286047003.8,N
1456723935.5,286047000.1,N
1456723955.3,286047001.6,N
1456723975.1,286047002.0,N
1456723995.9,286047005.1,N
1456724015.7,286047001.3,N
1456724035.5,286047001.9,N
1456724055.4,286047002.2,N
1456724075.2,286047002.5,N
1456724095.0,286047000.4,N
1456724095.9,286047000.4,N
1456724115.7,286047002.4,N
1456724135.6,286046999.4,N
1456724155.4,286046997.2,N
1456724175.2,286046998.9,N
1456724195.1,286046996.2,N
1456724196.0,286046996.2,N
1456724215.8,286046998.4,N
1456724235.6,286046997.7,N
1456724255.5,286046997.2,N
1456724275.3,286046997.8,N
1456724295.1,286046997.8,N
1456724315.9,286046995.9,N
1456724335.7,286046994.0,N
1456724355.5,286046992.1,Y
1456724375.4,286046992.9,P
1456724395.2,286046990.4,N
1456724415.0,286046990.5,N
1456724415.9,286046990.5,N
1456724435.8,286046994.0,N
1456724455.6,286046995.5,N
1456724475.4,286046996.3,N
1456724495.3,286046994.4,N
1456724515.1,286046993.2,N
1456724516.0,286046993.2,N
1456724535.8,286046992.2,N
1456724555.6,286046996.8,N
1456724575.5,286047000.1,N
1456724595.3,286047000.8,N
1456724615.1,286047000.5,N
1456724635.9,286047002.4,N
1456724655.7,286047003.6,N
1456724675.5,286047005.6,N
1456724695.4,286047005.4,N
1456724715.2,286047003.4,N
1456724735.0,286047005.2,N
1456724735.9,286047005.2,N
1456724755.8,286047006.4,N
1456724775.6,286047009.4,N
1456724795.4,286047008.9,N
1456724815.3,286047010.7,N
1456724835.1,286047012.5,N
1456724836.0,286047012.5,N
1456724855.8,286047015.1,N
1456724875.6,286047013.7,N
1456724895.5,286047009.5,N
1456724915.3,286047008.9,N
1456724935.1,286047008.8,N
1456724955.9,286047007.0,N
1456724975.7,286047005.4,N
1456724995.5,286047007.1,N
1456725015.4,286047006.9,N
1456725035.2,286047008.1,N
1456725055.0,286047014.0,N
1456725055.9,286047014.0,N
1456725075.8,286047015.5,N
1456725095.6,286047016.8,Y
1456725115.4,286047005.3,P
1456725135.3,286047006.0,P
1456725155.1,286047005.6,P
1456725156.0,286047005.6,Y
1456725175.8,286046996.9,P
1456725195.7,286046996.8,N
1456725215.5,286046996.1,N
1456725235.3,286046994.6,N
1456725255.2,286046990.6,N
1456725275.9,286046988.7,N
1456725295.7,286046987.2,N
1456725315.6,286046987.7,N
1456725335.4,286046989.4,N
1456725355.2,286046987.8,N
1456725375.1,286046988.5,N
1456725376.0,286046988.5,N
1456725395.8,286046991.2,N
1456725415.6,286046991.9,N
1456725435.4,286046995.5,N
1456725455.3,286046996.1,N
1456725475.1,286046995.2,N
1456725495.8,286046996.2,N
1456725515.7,286046994.8,N
1456725535.5,286046996.2,N
1456725555.3,286046993.9,N
1456725575.2,286046992.1,N
1456725595.9,286046991.0,N
